Date String (YYYY-MM-DD hh:mm:ss) UTC,Instrument flags,Ambient pressure (hPa),Sample flow (lpm),Bypass flow (lpm),Sample temperature (°C),Ambient temperature (°C),ASC tube jacket temperature (°C),LED temperature (°C),Box temperature (°C),Sample RH (%),Mass concentration (μg/m³),Mass concentration (μg/m³)
DateTimeUTC,F1_M11,P_M11,Q1_M11,Q2_M11,T1_M11,T2_M11,T3_M11,T4_M11,T5_M11,U1_M11,X0_M11,X2_M11
2021-08-17 22:00:00,,0822.1,4.99,0.00,28.7,26.7,00.0,37.8,30.5,18.9,0028.13,0018.92
2021-08-17 22:01:00,,0822.1,5.01,0.00,28.8,27.1,00.0,37.8,30.6,18.9,0028.48,0018.91
2021-08-17 22:02:00,,0822.0,5.00,0.00,28.8,27.5,00.0,37.8,30.8,19.7,0030.21,0018.96
2021-08-17 22:03:00,,0822.0,5.01,0.00,28.9,27.3,00.0,37.8,30.7,20.3,0031.73,0018.95
2021-08-17 22:04:00,,0822.0,5.00,0.00,28.8,25.8,00.0,37.8,30.2,18.6,0031.74,0018.96
2021-08-17 22:05:00,,0821.9,4.99,0.00,28.7,25.6,00.0,37.8,30.2,19.1,0032.24,0018.96
2021-08-17 22:06:00,,0822.1,5.00,0.00,28.7,26.1,00.0,37.8,30.3,19.4,0033.48,0018.98
2021-08-17 22:07:00,,0822.1,5.00,0.00,28.7,26.5,00.0,37.8,30.4,20.7,0033.68,0018.99
2021-08-17 22:08:00,,0821.9,5.00,0.00,28.7,26.9,00.0,37.8,30.5,20.4,0033.70,0018.94
2021-08-17 22:09:00,,0821.8,4.99,0.00,28.8,27.3,00.0,37.8,30.7,18.2,0033.31,0018.86
2021-08-17 22:10:00,,0821.8,5.01,0.00,28.9,27.6,00.0,37.8,30.8,19.0,0032.74,0018.76
2021-08-17 22:11:00,,0821.9,5.00,0.00,28.9,27.4,00.0,37.8,30.7,19.2,0032.84,0018.71
2021-08-17 22:12:00,,0821.9,4.99,0.00,28.8,25.9,00.0,37.8,30.2,19.2,0033.16,0018.67
2021-08-17 22:13:00,,0821.8,5.00,0.00,28.7,25.8,00.0,37.8,30.1,18.0,0031.55,0018.59
2021-08-17 22:14:00,,0821.8,4.99,0.00,28.7,26.2,00.0,37.8,30.3,18.8,0029.27,0018.52
2021-08-17 22:15:00,,0821.8,5.00,0.00,28.7,26.6,00.0,37.8,30.4,18.2,0028.77,0018.47
2021-08-17 22:16:00,,0821.9,5.00,0.00,28.8,27.0,00.0,37.8,30.6,18.3,0028.22,0018.44
2021-08-17 22:17:00,,0821.8,5.00,0.00,28.8,27.3,00.0,37.8,30.7,19.0,0027.12,0018.36
2021-08-17 22:18:00,,0821.8,5.02,0.00,28.9,27.6,00.0,37.8,30.8,18.4,0027.25,0018.25
2021-08-17 22:19:00,,0821.8,5.00,0.00,28.9,26.5,00.0,37.8,30.5,18.7,0026.77,0018.14
2021-08-17 22:20:00,,0821.8,5.00,0.00,28.7,25.6,00.0,37.8,30.1,18.7,0026.13,0018.04
2021-08-17 22:21:00,,0821.8,5.01,0.00,28.7,26.0,00.0,37.8,30.2,18.2,0025.80,0017.93
2021-08-17 22:22:00,,0821.8,5.01,0.00,28.7,26.4,00.0,37.8,30.4,18.7,0025.68,0017.86
2021-08-17 22:23:00,,0821.8,4.99,0.00,28.7,26.8,00.0,37.8,30.5,19.9,0024.82,0017.77
2021-08-17 22:24:00,,0821.8,5.00,0.00,28.8,27.2,00.0,37.8,30.7,20.0,0024.67,0017.68
2021-08-17 22:25:00,,0821.8,5.00,0.00,28.9,27.6,00.0,37.8,30.8,18.7,0024.95,0017.61
2021-08-17 22:26:00,,0821.8,5.00,0.00,29.0,27.7,00.0,37.8,30.9,17.5,0025.22,0017.56
2021-08-17 22:27:00,,0821.8,5.01,0.00,28.9,26.7,00.0,37.8,30.5,17.0,0025.39,0017.49
2021-08-17 22:28:00,,0821.8,5.01,0.00,28.8,25.7,00.0,37.8,30.2,17.0,0025.67,0017.46
2021-08-17 22:29:00,,0821.8,4.99,0.00,28.7,26.0,00.0,37.8,30.3,16.8,0025.63,0017.50
2021-08-17 22:30:00,,0821.7,5.01,0.00,28.7,26.5,00.0,37.8,30.4,16.8,0025.28,0017.51
2021-08-17 22:31:00,,0821.7,4.99,0.00,28.8,26.9,00.0,37.8,30.5,17.3,0025.85,0017.54
2021-08-17 22:32:00,,0821.7,5.01,0.00,28.8,27.2,00.0,37.8,30.7,17.3,0025.94,0017.55
2021-08-17 22:33:00,,0821.7,4.99,0.00,28.9,27.6,00.0,37.8,30.8,17.3,0025.78,0017.56
2021-08-17 22:34:00,,0821.8,4.99,0.00,29.0,27.8,00.0,37.9,30.9,17.4,0025.91,0017.58
2021-08-17 22:35:00,,0821.7,5.00,0.00,29.0,26.7,00.0,37.9,30.5,18.6,0025.98,0017.57
2021-08-17 22:36:00,,0821.7,5.01,0.00,28.8,25.6,00.0,37.8,30.2,18.7,0025.94,0017.59
2021-08-17 22:37:00,,0821.7,5.00,0.00,28.8,26.0,00.0,37.8,30.3,18.0,0025.45,0017.58
2021-08-17 22:38:00,,0821.7,5.00,0.00,28.8,26.4,00.0,37.8,30.4,17.9,0025.05,0017.55
2021-08-17 22:39:00,,0821.7,5.00,0.00,28.8,26.8,00.0,37.8,30.5,18.1,0024.84,0017.53
2021-08-17 22:40:00,,0821.7,5.00,0.00,28.8,27.2,00.0,37.8,30.7,17.4,0024.25,0017.45
2021-08-17 22:41:00,,0821.7,5.00,0.00,28.9,27.6,00.0,37.8,30.8,17.1,0024.14,0017.41
2021-08-17 22:42:00,,0821.7,4.99,0.00,29.0,27.8,00.0,37.9,30.9,18.1,0023.98,0017.36
2021-08-17 22:43:00,,0821.7,5.01,0.00,29.0,26.7,00.0,37.9,30.5,18.6,0023.85,0017.34
2021-08-17 22:44:00,,0821.7,5.01,0.00,28.8,25.6,00.0,37.9,30.2,17.8,0023.85,0017.35
2021-08-17 22:45:00,,0821.7,4.99,0.00,28.8,26.0,00.0,37.8,30.3,17.9,0023.74,0017.31
2021-08-17 22:46:00,,0821.7,5.00,0.00,28.8,26.4,00.0,37.8,30.4,18.2,0023.70,0017.27
2021-08-17 22:47:00,,0821.7,5.00,0.00,28.8,26.8,00.0,37.8,30.5,18.5,0023.91,0017.20
2021-08-17 22:48:00,,0821.8,5.01,0.00,28.8,27.1,00.0,37.8,30.7,17.6,0024.90,0017.13
2021-08-17 22:49:00,,0821.8,5.00,0.00,28.9,27.5,00.0,37.8,30.8,18.3,0025.48,0017.14
2021-08-17 22:50:00,,0821.8,5.01,0.00,29.0,27.7,00.0,37.9,30.9,18.1,0026.25,0017.15
2021-08-17 22:51:00,,0821.8,5.01,0.00,28.9,26.6,00.0,37.9,30.5,18.1,0026.30,0017.15
2021-08-17 22:52:00,,0821.8,4.99,0.00,28.8,25.6,00.0,37.9,30.2,17.8,0027.61,0017.15
2021-08-17 22:53:00,,0821.8,4.99,0.00,28.7,25.9,00.0,37.9,30.3,17.6,0027.89,0017.14
2021-08-17 22:54:00,,0821.8,5.01,0.00,28.7,26.4,00.0,37.8,30.4,17.6,0027.56,0017.14
2021-08-17 22:55:00,,0821.8,5.01,0.00,28.8,26.8,00.0,37.8,30.5,18.5,0027.98,0017.14
2021-08-17 22:56:00,,0821.8,5.00,0.00,28.8,27.2,00.0,37.8,30.7,17.8,0028.63,0017.19
2021-08-17 22:57:00,,0821.8,4.98,0.00,28.9,27.6,00.0,37.9,30.8,17.2,0028.66,0017.21
2021-08-17 22:58:00,,0821.8,5.01,0.00,29.0,27.9,00.0,37.9,30.9,17.6,0028.47,0017.28
2021-08-17 22:59:00,,0821.8,4.99,0.00,29.0,27.6,00.0,37.9,30.8,17.9,0028.17,0017.38
